KLM791 EHAM-SBGR

Flight info

Callsign KLM791
Flight time N/A
Altitude 23000
Route WOODY N872 CIV/N0489F310 N872 MEDIL UN872 ERIGA UN741 AZFIC DCT GATMO DCT LOTEE DCT PINEK/N0491F330 DCT NELSO/N0492F340 N741 EDUMO UN741 NANIK/N0495F360 UN741 DADAP/N0487F380 UN741 GEVMI UZ3 CNF UZ21 VUNOX
Aircraft B77W/H-SDE1E2E3FGHIJ2J3J4J5M1RWXY/LB1D1

Departure

Time N/A
Airport Amsterdam Airport Schiphol (EHAM)

Arrival

Time 2026-05-07 19:45
Airport São Paulo/Guarulhos–Governor André Franco Montoro International Airport (SBGR)
Time Latitude Longitude Altitude Speed Heading
2026-05-07 16:59 -5.38613 -39.05519 34902 ft 493 kts 208°
2026-05-07 16:59 -5.44798 -39.08502 34906 ft 493 kts 208°
2026-05-07 17:00 -5.50980 -39.11476 34906 ft 492 kts 208°
2026-05-07 17:00 -5.57159 -39.14449 34907 ft 492 kts 208°
2026-05-07 17:01 -5.63345 -39.17428 34911 ft 492 kts 208°
2026-05-07 17:01 -5.69515 -39.20400 34909 ft 492 kts 208°
2026-05-07 17:02 -5.75679 -39.23370 34906 ft 491 kts 208°
2026-05-07 17:02 -5.81839 -39.26339 34910 ft 491 kts 208°
2026-05-07 17:03 -5.87969 -39.29294 34916 ft 491 kts 208°
2026-05-07 17:03 -5.94124 -39.32262 34917 ft 490 kts 208°
2026-05-07 17:04 -6.00282 -39.35233 34918 ft 490 kts 208°
2026-05-07 17:04 -6.06429 -39.38199 34926 ft 489 kts 208°
2026-05-07 17:05 -6.12573 -39.41164 34933 ft 489 kts 208°
2026-05-07 17:05 -6.18705 -39.44124 34927 ft 489 kts 208°
2026-05-07 17:06 -6.24828 -39.47080 34931 ft 488 kts 208°
2026-05-07 17:06 -6.30954 -39.50037 34930 ft 488 kts 208°
2026-05-07 17:07 -6.34026 -39.51520 35093 ft 491 kts 208°
2026-05-07 17:07 -6.37052 -39.52981 35483 ft 488 kts 208°
2026-05-07 17:07 -6.40103 -39.54453 35943 ft 484 kts 208°
2026-05-07 17:07 -6.43128 -39.55912 36375 ft 480 kts 208°
2026-05-07 17:08 -6.46135 -39.57365 36776 ft 478 kts 208°
2026-05-07 17:08 -6.49138 -39.58816 36923 ft 480 kts 208°
2026-05-07 17:08 -6.55160 -39.61728 36922 ft 479 kts 208°
2026-05-07 17:09 -6.61151 -39.64624 36923 ft 478 kts 209°
2026-05-07 17:09 -6.67147 -39.67524 36923 ft 477 kts 209°
2026-05-07 17:10 -6.73129 -39.70418 36923 ft 477 kts 209°
2026-05-07 17:10 -6.79113 -39.73313 36923 ft 478 kts 209°
2026-05-07 17:11 -6.85076 -39.76200 36925 ft 477 kts 209°
2026-05-07 17:11 -6.91056 -39.79093 36918 ft 476 kts 209°
2026-05-07 17:12 -6.97028 -39.81984 36926 ft 476 kts 209°
2026-05-07 17:12 -7.03001 -39.84878 36922 ft 476 kts 209°
2026-05-07 17:13 -7.08967 -39.87769 36928 ft 476 kts 209°
2026-05-07 17:13 -7.14932 -39.90662 36932 ft 475 kts 209°
2026-05-07 17:14 -7.20900 -39.93555 36936 ft 475 kts 209°
2026-05-07 17:14 -7.26821 -39.96427 36934 ft 475 kts 209°
2026-05-07 17:15 -7.32774 -39.99316 36942 ft 474 kts 209°
2026-05-07 17:15 -7.38724 -40.02204 36940 ft 474 kts 209°
2026-05-07 17:16 -7.44678 -40.05096 36951 ft 474 kts 209°
2026-05-07 17:16 -7.50623 -40.07983 36950 ft 474 kts 209°
2026-05-07 17:17 -7.56528 -40.10851 36940 ft 474 kts 209°
2026-05-07 17:17 -7.62475 -40.13742 36939 ft 473 kts 209°
2026-05-07 17:18 -7.68412 -40.16631 36937 ft 473 kts 209°
2026-05-07 17:18 -7.74315 -40.19503 36942 ft 473 kts 209°
2026-05-07 17:19 -7.80250 -40.22393 36938 ft 474 kts 209°
2026-05-07 17:19 -7.86191 -40.25286 36939 ft 473 kts 209°
2026-05-07 17:20 -7.92118 -40.28174 36933 ft 473 kts 209°
2026-05-07 17:20 -7.98013 -40.31046 36927 ft 472 kts 209°
2026-05-07 17:21 -8.03923 -40.33927 36931 ft 472 kts 209°
2026-05-07 17:21 -8.09836 -40.36811 36926 ft 472 kts 209°
2026-05-07 17:22 -8.15743 -40.39692 36934 ft 472 kts 209°
2026-05-07 17:22 -8.21663 -40.42581 36928 ft 471 kts 209°
2026-05-07 17:23 -8.27578 -40.45468 36927 ft 471 kts 208°
2026-05-07 17:23 -8.33485 -40.48352 36931 ft 471 kts 208°
2026-05-07 17:24 -8.39341 -40.51213 36929 ft 471 kts 208°
2026-05-07 17:24 -8.45258 -40.54104 36932 ft 471 kts 208°
2026-05-07 17:25 -8.51157 -40.56987 36926 ft 470 kts 208°
2026-05-07 17:25 -8.57006 -40.59847 36929 ft 470 kts 208°
2026-05-07 17:26 -8.62900 -40.62730 36929 ft 470 kts 208°
2026-05-07 17:26 -8.68788 -40.65611 36928 ft 470 kts 208°
2026-05-07 17:27 -8.74674 -40.68492 36924 ft 469 kts 208°
2026-05-07 17:27 -8.80517 -40.71353 36918 ft 469 kts 208°
2026-05-07 17:28 -8.86389 -40.74229 36931 ft 468 kts 208°
2026-05-07 17:28 -8.92258 -40.77105 36920 ft 468 kts 208°
2026-05-07 17:29 -8.98124 -40.79980 36918 ft 468 kts 208°
2026-05-07 17:29 -9.03954 -40.82839 36925 ft 468 kts 208°
2026-05-07 17:30 -9.09813 -40.85713 36925 ft 468 kts 208°
2026-05-07 17:30 -9.15666 -40.88585 36920 ft 468 kts 208°
2026-05-07 17:31 -9.21520 -40.91459 36915 ft 467 kts 208°
2026-05-07 17:31 -9.27368 -40.94330 36930 ft 467 kts 208°
2026-05-07 17:32 -9.33228 -40.97210 36927 ft 467 kts 208°
2026-05-07 17:32 -9.38080 -40.99594 36925 ft 467 kts 208°
2026-05-07 17:33 -9.43934 -41.02472 36929 ft 467 kts 208°
2026-05-07 17:33 -9.50727 -41.05813 36930 ft 466 kts 208°
2026-05-07 17:34 -9.56563 -41.08685 36929 ft 466 kts 208°
2026-05-07 17:34 -9.62399 -41.11558 36923 ft 466 kts 208°
2026-05-07 17:35 -9.67256 -41.13952 36933 ft 466 kts 208°
2026-05-07 17:35 -9.74032 -41.17300 36933 ft 466 kts 208°
2026-05-07 17:36 -9.78909 -41.19712 36931 ft 465 kts 208°
2026-05-07 17:36 -9.84732 -41.22592 36933 ft 465 kts 208°
2026-05-07 17:37 -9.90520 -41.25455 36943 ft 465 kts 208°
2026-05-07 17:37 -9.96383 -41.28345 36937 ft 465 kts 208°
2026-05-07 17:38 -10.02171 -41.31197 36945 ft 465 kts 208°
2026-05-07 17:38 -10.07985 -41.34066 36954 ft 465 kts 208°
2026-05-07 17:39 -10.13793 -41.36933 36961 ft 465 kts 208°
2026-05-07 17:39 -10.19619 -41.39809 36954 ft 464 kts 208°
2026-05-07 17:40 -10.25393 -41.42661 36959 ft 464 kts 208°
2026-05-07 17:40 -10.31194 -41.45528 36948 ft 463 kts 208°
2026-05-07 17:41 -10.36996 -41.48398 36964 ft 464 kts 208°
2026-05-07 17:41 -10.42806 -41.51272 36961 ft 464 kts 208°
2026-05-07 17:42 -10.48602 -41.54141 36954 ft 463 kts 208°
2026-05-07 17:42 -10.54396 -41.57010 36955 ft 463 kts 208°
2026-05-07 17:43 -10.60152 -41.59859 36949 ft 462 kts 208°
2026-05-07 17:43 -10.65930 -41.62713 36952 ft 462 kts 208°
2026-05-07 17:44 -10.71718 -41.65572 36943 ft 462 kts 208°
2026-05-07 17:44 -10.77508 -41.68436 36943 ft 461 kts 208°
2026-05-07 17:45 -10.83285 -41.71295 36942 ft 461 kts 208°
2026-05-07 17:45 -10.89019 -41.74139 36945 ft 461 kts 208°
2026-05-07 17:46 -10.94771 -41.77001 36943 ft 460 kts 208°
2026-05-07 17:46 -11.00531 -41.79869 36947 ft 460 kts 208°
2026-05-07 17:47 -11.06279 -41.82731 36940 ft 460 kts 208°
2026-05-07 17:47 -11.12034 -41.85598 36951 ft 459 kts 208°
2026-05-07 17:48 -11.17774 -41.88459 36945 ft 459 kts 208°
2026-05-07 17:48 -11.23510 -41.91318 36953 ft 459 kts 208°
2026-05-07 17:49 -11.29246 -41.94179 36950 ft 459 kts 208°
2026-05-07 17:49 -11.34977 -41.97039 36956 ft 458 kts 208°
2026-05-07 17:50 -11.40707 -41.99900 36953 ft 458 kts 208°
2026-05-07 17:50 -11.46395 -42.02741 36957 ft 457 kts 208°
2026-05-07 17:51 -11.52109 -42.05597 36957 ft 457 kts 208°
2026-05-07 17:51 -11.57833 -42.08458 36959 ft 456 kts 208°
2026-05-07 17:52 -11.63541 -42.11313 36965 ft 457 kts 208°
2026-05-07 17:52 -11.69248 -42.14170 36979 ft 457 kts 208°
2026-05-07 17:53 -11.74954 -42.17026 36968 ft 456 kts 208°
2026-05-07 17:53 -11.80656 -42.19875 36978 ft 456 kts 208°
2026-05-07 17:54 -11.86351 -42.22722 36981 ft 456 kts 208°
2026-05-07 17:54 -11.92010 -42.25554 36979 ft 456 kts 207°
2026-05-07 17:55 -11.97711 -42.28409 36972 ft 455 kts 207°
2026-05-07 17:55 -12.03402 -42.31259 36978 ft 455 kts 207°
2026-05-07 17:56 -12.09096 -42.34114 36972 ft 455 kts 207°
2026-05-07 17:56 -12.14772 -42.36960 36965 ft 455 kts 207°
2026-05-07 17:57 -12.19503 -42.39334 36967 ft 455 kts 207°
2026-05-07 17:57 -12.26117 -42.42653 36957 ft 455 kts 207°
2026-05-07 17:58 -12.31785 -42.45499 36942 ft 454 kts 207°
2026-05-07 17:58 -12.37454 -42.48344 36940 ft 453 kts 207°
2026-05-07 17:59 -12.43126 -42.51193 36936 ft 453 kts 207°
2026-05-07 17:59 -12.48792 -42.54042 36926 ft 453 kts 207°
2026-05-07 18:00 -12.54454 -42.56890 36931 ft 453 kts 207°
2026-05-07 18:00 -12.60104 -42.59733 36927 ft 452 kts 207°
2026-05-07 18:01 -12.65713 -42.62557 36924 ft 452 kts 207°
2026-05-07 18:01 -12.71354 -42.65399 36927 ft 452 kts 207°
2026-05-07 18:02 -12.79818 -42.69665 36933 ft 452 kts 207°
2026-05-07 18:03 -12.85461 -42.72511 36930 ft 452 kts 207°
2026-05-07 18:03 -12.91089 -42.75351 36937 ft 451 kts 207°
2026-05-07 18:04 -12.96731 -42.78200 36936 ft 451 kts 207°
2026-05-07 18:04 -13.02361 -42.81044 36943 ft 451 kts 207°
2026-05-07 18:05 -13.07985 -42.83886 36944 ft 450 kts 207°
2026-05-07 18:05 -13.13603 -42.86727 36941 ft 450 kts 207°
2026-05-07 18:06 -13.19188 -42.89553 36941 ft 450 kts 207°
2026-05-07 18:06 -13.24811 -42.92399 36946 ft 450 kts 207°
2026-05-07 18:07 -13.30425 -42.95242 36946 ft 450 kts 207°
2026-05-07 18:07 -13.36036 -42.98085 36949 ft 449 kts 206°
2026-05-07 18:08 -13.41644 -43.00928 36945 ft 449 kts 206°
2026-05-07 18:08 -13.47249 -43.03771 36945 ft 449 kts 206°
2026-05-07 18:09 -13.52807 -43.06592 36947 ft 449 kts 206°
2026-05-07 18:09 -13.58416 -43.09440 36941 ft 449 kts 206°
2026-05-07 18:10 -13.64021 -43.12288 36940 ft 449 kts 206°
2026-05-07 18:10 -13.69581 -43.15114 36941 ft 448 kts 206°
2026-05-07 18:11 -13.75174 -43.17958 36940 ft 448 kts 206°
2026-05-07 18:11 -13.80765 -43.20804 36937 ft 448 kts 206°
2026-05-07 18:12 -13.86361 -43.23653 36929 ft 448 kts 206°
2026-05-07 18:12 -13.91952 -43.26501 36934 ft 448 kts 206°
2026-05-07 18:13 -13.97536 -43.29348 36933 ft 447 kts 206°
2026-05-07 18:13 -14.03122 -43.32184 36938 ft 448 kts 206°
2026-05-07 18:14 -14.08719 -43.35000 36934 ft 447 kts 206°
2026-05-07 18:14 -14.14277 -43.37798 36940 ft 448 kts 206°
2026-05-07 18:15 -14.19875 -43.40621 36935 ft 447 kts 206°
2026-05-07 18:15 -14.25462 -43.43442 36945 ft 447 kts 206°
2026-05-07 18:16 -14.31053 -43.46267 36940 ft 447 kts 206°
2026-05-07 18:16 -14.36657 -43.49100 36940 ft 447 kts 206°
2026-05-07 18:17 -14.42215 -43.51912 36936 ft 447 kts 206°
2026-05-07 18:17 -14.47803 -43.54740 36939 ft 447 kts 206°
2026-05-07 18:18 -14.53387 -43.57568 36941 ft 447 kts 206°
2026-05-07 18:18 -14.58979 -43.60401 36937 ft 447 kts 206°
2026-05-07 18:19 -14.64577 -43.63239 36943 ft 447 kts 206°
2026-05-07 18:19 -14.70135 -43.66058 36943 ft 447 kts 206°
2026-05-07 18:20 -14.75717 -43.68892 36945 ft 447 kts 206°
2026-05-07 18:20 -14.81301 -43.71727 36944 ft 447 kts 206°
2026-05-07 18:21 -14.86884 -43.74565 36950 ft 447 kts 206°
2026-05-07 18:21 -14.92466 -43.77403 36953 ft 447 kts 206°
2026-05-07 18:22 -14.98017 -43.80228 36952 ft 447 kts 206°
2026-05-07 18:22 -15.03593 -43.83058 36954 ft 447 kts 205°
2026-05-07 18:23 -15.09188 -43.85859 36956 ft 447 kts 205°
2026-05-07 18:23 -15.13873 -43.88202 36957 ft 447 kts 205°
2026-05-07 18:24 -15.19473 -43.91008 36960 ft 447 kts 205°
2026-05-07 18:24 -15.25061 -43.93814 36962 ft 446 kts 205°
2026-05-07 18:25 -15.30622 -43.96608 36962 ft 447 kts 205°
2026-05-07 18:25 -15.36209 -43.99417 36966 ft 447 kts 205°
2026-05-07 18:26 -15.41822 -44.02241 36967 ft 447 kts 205°
2026-05-07 18:26 -15.47428 -44.05062 36963 ft 447 kts 205°
2026-05-07 18:27 -15.53011 -44.07818 36974 ft 447 kts 205°
2026-05-07 18:27 -15.58642 -44.10578 36976 ft 447 kts 205°
2026-05-07 18:28 -15.64263 -44.13354 36978 ft 446 kts 205°
2026-05-07 18:28 -15.69866 -44.16135 36978 ft 446 kts 205°
2026-05-07 18:29 -15.75469 -44.18919 36982 ft 446 kts 205°
2026-05-07 18:29 -15.81077 -44.21705 36979 ft 446 kts 205°
2026-05-07 18:30 -15.86641 -44.24471 36983 ft 446 kts 205°
2026-05-07 18:30 -15.92244 -44.27257 36988 ft 446 kts 205°
2026-05-07 18:31 -15.97850 -44.30047 36986 ft 446 kts 205°
2026-05-07 18:31 -16.03447 -44.32834 36988 ft 446 kts 205°
2026-05-07 18:32 -16.09048 -44.35625 36986 ft 446 kts 205°
2026-05-07 18:32 -16.14645 -44.38416 36985 ft 446 kts 205°
2026-05-07 18:33 -16.20219 -44.41196 36987 ft 446 kts 205°
2026-05-07 18:33 -16.25815 -44.43990 36988 ft 446 kts 205°
2026-05-07 18:34 -16.31405 -44.46782 36984 ft 445 kts 205°
2026-05-07 18:34 -16.36994 -44.49576 36984 ft 445 kts 205°
2026-05-07 18:35 -16.42554 -44.52357 36985 ft 445 kts 205°
2026-05-07 18:35 -16.48147 -44.55156 36986 ft 445 kts 205°
2026-05-07 18:36 -16.53725 -44.57950 36985 ft 445 kts 205°
2026-05-07 18:36 -16.59313 -44.60750 36985 ft 445 kts 205°
2026-05-07 18:37 -16.64890 -44.63547 36985 ft 445 kts 205°
2026-05-07 18:37 -16.70478 -44.66351 36981 ft 445 kts 205°
2026-05-07 18:38 -16.76069 -44.69159 36982 ft 445 kts 205°
2026-05-07 18:38 -16.81650 -44.71857 36975 ft 444 kts 198°
2026-05-07 18:39 -16.87754 -44.72812 36990 ft 447 kts 182°
2026-05-07 18:39 -16.93923 -44.71863 36986 ft 451 kts 169°
2026-05-07 18:40 -17.00011 -44.70278 36982 ft 451 kts 169°
2026-05-07 18:40 -17.06110 -44.68705 36983 ft 451 kts 169°
2026-05-07 18:41 -17.12214 -44.67182 36980 ft 450 kts 169°
2026-05-07 18:41 -17.18276 -44.65690 36980 ft 450 kts 169°
2026-05-07 18:42 -17.24368 -44.64191 36984 ft 450 kts 169°
2026-05-07 18:42 -17.30462 -44.62689 36989 ft 450 kts 169°
2026-05-07 18:43 -17.36551 -44.61186 36987 ft 450 kts 169°
2026-05-07 18:43 -17.42643 -44.59681 36996 ft 449 kts 169°
2026-05-07 18:44 -17.48735 -44.58175 36993 ft 449 kts 169°
2026-05-07 18:44 -17.54814 -44.56671 36993 ft 449 kts 169°
2026-05-07 18:45 -17.60895 -44.55167 37003 ft 449 kts 169°
2026-05-07 18:45 -17.66974 -44.53654 37004 ft 449 kts 169°
2026-05-07 18:46 -17.73033 -44.52055 37007 ft 449 kts 169°
2026-05-07 18:46 -17.79049 -44.50441 37008 ft 449 kts 169°
2026-05-07 18:47 -17.85114 -44.48823 36997 ft 449 kts 169°
2026-05-07 18:47 -17.91182 -44.47211 37012 ft 449 kts 169°
2026-05-07 18:48 -17.97243 -44.45599 37013 ft 449 kts 169°
2026-05-07 18:48 -18.03313 -44.43983 37005 ft 449 kts 169°
2026-05-07 18:49 -18.09379 -44.42395 37004 ft 449 kts 169°
2026-05-07 18:49 -18.15457 -44.40861 36990 ft 449 kts 169°
2026-05-07 18:50 -18.21490 -44.39340 36980 ft 448 kts 169°
2026-05-07 18:50 -18.27563 -44.37799 37005 ft 448 kts 169°
2026-05-07 18:51 -18.33641 -44.36253 37003 ft 448 kts 169°
2026-05-07 18:51 -18.39713 -44.34707 36987 ft 448 kts 169°
2026-05-07 18:52 -18.45742 -44.33170 36990 ft 448 kts 169°
2026-05-07 18:52 -18.51815 -44.31622 36990 ft 448 kts 169°
2026-05-07 18:53 -18.57881 -44.30074 36990 ft 448 kts 169°
2026-05-07 18:53 -18.63946 -44.28525 36992 ft 448 kts 169°
2026-05-07 18:54 -18.70016 -44.26974 36993 ft 448 kts 169°
2026-05-07 18:54 -18.76037 -44.25434 36998 ft 448 kts 170°
2026-05-07 18:55 -18.82088 -44.23885 36994 ft 448 kts 170°
2026-05-07 18:55 -18.88153 -44.22330 36999 ft 448 kts 169°
2026-05-07 18:56 -18.94208 -44.20776 37002 ft 447 kts 170°
2026-05-07 18:56 -19.00259 -44.19222 37004 ft 447 kts 170°
2026-05-07 18:57 -19.06312 -44.17666 37003 ft 447 kts 170°
2026-05-07 18:57 -19.12365 -44.16110 37006 ft 447 kts 170°
2026-05-07 18:58 -19.18375 -44.14562 37006 ft 447 kts 170°
2026-05-07 18:58 -19.24418 -44.13005 37003 ft 447 kts 170°
2026-05-07 18:59 -19.30472 -44.11445 37017 ft 447 kts 170°
2026-05-07 18:59 -19.36524 -44.09883 37047 ft 447 kts 170°
2026-05-07 19:00 -19.42562 -44.08323 37071 ft 447 kts 170°
2026-05-07 19:00 -19.48611 -44.06760 37097 ft 447 kts 170°
2026-05-07 19:01 -19.54699 -44.06123 37127 ft 438 kts 191°
2026-05-07 19:01 -19.60398 -44.08213 37114 ft 440 kts 212°
2026-05-07 19:02 -19.65316 -44.12097 37108 ft 440 kts 216°
2026-05-07 19:02 -19.70251 -44.15928 37092 ft 439 kts 214°
2026-05-07 19:03 -19.75212 -44.19738 37059 ft 440 kts 215°
2026-05-07 19:03 -19.80152 -44.23561 37048 ft 439 kts 215°
2026-05-07 19:04 -19.85088 -44.27386 37038 ft 439 kts 215°
2026-05-07 19:04 -19.90027 -44.31215 37029 ft 439 kts 215°
2026-05-07 19:05 -19.94955 -44.35035 37020 ft 439 kts 215°
2026-05-07 19:05 -19.99890 -44.38864 37025 ft 439 kts 215°
2026-05-07 19:06 -20.04826 -44.42698 37020 ft 439 kts 215°
2026-05-07 19:06 -20.12187 -44.48421 37025 ft 439 kts 216°
2026-05-07 19:07 -20.17122 -44.52258 37020 ft 439 kts 216°
2026-05-07 19:07 -20.22065 -44.56099 37022 ft 439 kts 216°
2026-05-07 19:08 -20.26155 -44.59280 37029 ft 438 kts 216°
2026-05-07 19:08 -20.31081 -44.63116 37021 ft 439 kts 216°
2026-05-07 19:09 -20.36008 -44.66956 37020 ft 439 kts 216°
2026-05-07 19:09 -20.40933 -44.70798 37019 ft 438 kts 216°
2026-05-07 19:10 -20.45854 -44.74640 37025 ft 438 kts 216°
2026-05-07 19:10 -20.50782 -44.78491 37020 ft 438 kts 216°
2026-05-07 19:11 -20.55701 -44.82337 37025 ft 438 kts 216°
2026-05-07 19:11 -20.60588 -44.86164 37024 ft 438 kts 216°
2026-05-07 19:12 -20.65501 -44.90015 37022 ft 438 kts 216°
2026-05-07 19:12 -20.70417 -44.93872 37020 ft 438 kts 216°
2026-05-07 19:13 -20.75327 -44.97725 37022 ft 438 kts 216°
2026-05-07 19:13 -20.80235 -45.01576 37020 ft 438 kts 216°
2026-05-07 19:14 -20.85149 -45.05435 37022 ft 438 kts 216°
2026-05-07 19:14 -20.90053 -45.09289 37010 ft 437 kts 216°
2026-05-07 19:15 -20.94928 -45.13122 37016 ft 437 kts 216°
2026-05-07 19:15 -20.99834 -45.16982 37006 ft 437 kts 216°
2026-05-07 19:16 -21.04729 -45.20837 37012 ft 437 kts 217°
2026-05-07 19:16 -21.09604 -45.24681 37009 ft 437 kts 217°
2026-05-07 19:17 -21.14497 -45.28542 37007 ft 437 kts 217°
2026-05-07 19:17 -21.19390 -45.32406 37014 ft 437 kts 217°
2026-05-07 19:18 -21.24277 -45.36269 37003 ft 437 kts 217°
2026-05-07 19:18 -21.29168 -45.40138 37009 ft 437 kts 217°
2026-05-07 19:19 -21.34052 -45.44006 37004 ft 436 kts 217°
2026-05-07 19:19 -21.38938 -45.47877 37005 ft 436 kts 217°
2026-05-07 19:20 -21.43819 -45.51750 37005 ft 436 kts 217°
2026-05-07 19:20 -21.48701 -45.55625 37003 ft 436 kts 217°
2026-05-07 19:21 -21.53553 -45.59457 36992 ft 436 kts 217°
2026-05-07 19:21 -21.58455 -45.63300 36999 ft 436 kts 217°
2026-05-07 19:22 -21.63344 -45.67138 36992 ft 435 kts 217°
2026-05-07 19:22 -21.68232 -45.70984 36999 ft 435 kts 217°
2026-05-07 19:23 -21.73116 -45.74831 37001 ft 435 kts 217°
2026-05-07 19:23 -21.77995 -45.78678 36998 ft 435 kts 217°
2026-05-07 19:24 -21.82828 -45.82492 36715 ft 427 kts 217°
2026-05-07 19:24 -21.85220 -45.84381 36121 ft 425 kts 217°
2026-05-07 19:24 -21.87611 -45.86269 35417 ft 425 kts 217°
2026-05-07 19:25 -21.90000 -45.88157 34622 ft 428 kts 217°
2026-05-07 19:25 -21.92415 -45.90067 33760 ft 432 kts 216°
2026-05-07 19:25 -21.94845 -45.91989 32803 ft 437 kts 217°
2026-05-07 19:25 -21.97317 -45.93945 31861 ft 442 kts 217°
2026-05-07 19:26 -21.99820 -45.95927 30926 ft 452 kts 217°
2026-05-07 19:26 -22.02381 -45.97957 30225 ft 462 kts 217°
2026-05-07 19:26 -22.04997 -46.00030 29386 ft 468 kts 217°
2026-05-07 19:26 -22.07518 -46.02028 28640 ft 464 kts 217°
2026-05-07 19:27 -22.10150 -46.04116 27902 ft 460 kts 217°
2026-05-07 19:27 -22.12720 -46.06154 27214 ft 455 kts 217°
2026-05-07 19:27 -22.15259 -46.08170 26518 ft 451 kts 217°
2026-05-07 19:27 -22.17771 -46.10164 25864 ft 448 kts 218°
2026-05-07 19:28 -22.20281 -46.12154 25182 ft 445 kts 218°
2026-05-07 19:28 -22.22764 -46.14123 24507 ft 442 kts 218°
2026-05-07 19:28 -22.25242 -46.16088 23845 ft 441 kts 218°
2026-05-07 19:28 -22.27710 -46.18048 23114 ft 439 kts 218°
2026-05-07 19:29 -22.30161 -46.19979 22403 ft 433 kts 216°
2026-05-07 19:29 -22.32840 -46.21451 21771 ft 433 kts 199°
2026-05-07 19:29 -22.35788 -46.22075 21277 ft 431 kts 189°
2026-05-07 19:29 -22.38769 -46.22471 20767 ft 433 kts 189°
2026-05-07 19:30 -22.41759 -46.22886 20264 ft 433 kts 189°
2026-05-07 19:30 -22.44738 -46.23324 19736 ft 432 kts 189°
2026-05-07 19:30 -22.47687 -46.23775 19229 ft 431 kts 189°
2026-05-07 19:30 -22.50660 -46.24240 18695 ft 430 kts 188°
2026-05-07 19:31 -22.53616 -46.24705 18169 ft 429 kts 188°
2026-05-07 19:31 -22.56534 -46.25344 17636 ft 429 kts 195°
2026-05-07 19:31 -22.59381 -46.26370 17278 ft 428 kts 202°
2026-05-07 19:31 -22.62075 -46.27716 17033 ft 425 kts 206°
2026-05-07 19:32 -22.64710 -46.29119 16760 ft 422 kts 206°
2026-05-07 19:32 -22.67350 -46.30533 16444 ft 422 kts 206°
2026-05-07 19:32 -22.69979 -46.31939 16136 ft 421 kts 206°
2026-05-07 19:32 -22.72614 -46.33340 15848 ft 420 kts 206°
2026-05-07 19:33 -22.75238 -46.34730 15586 ft 419 kts 206°
2026-05-07 19:33 -22.77853 -46.36113 15322 ft 418 kts 206°
2026-05-07 19:33 -22.80430 -46.37476 15061 ft 416 kts 206°
2026-05-07 19:33 -22.83027 -46.38846 14734 ft 415 kts 206°
2026-05-07 19:34 -22.85618 -46.40214 14370 ft 412 kts 206°
2026-05-07 19:34 -22.88192 -46.41573 13997 ft 409 kts 206°
2026-05-07 19:34 -22.90749 -46.42923 13626 ft 407 kts 206°
2026-05-07 19:34 -22.93284 -46.44263 13214 ft 404 kts 206°
2026-05-07 19:35 -22.95806 -46.45595 12833 ft 402 kts 206°
2026-05-07 19:35 -22.98304 -46.46915 12462 ft 399 kts 206°
2026-05-07 19:35 -23.00793 -46.48233 12114 ft 395 kts 206°
2026-05-07 19:35 -23.03238 -46.49527 11747 ft 388 kts 206°
2026-05-07 19:36 -23.05650 -46.50805 11388 ft 381 kts 207°
2026-05-07 19:36 -23.07984 -46.52041 11025 ft 363 kts 207°
2026-05-07 19:36 -23.10190 -46.53209 10705 ft 344 kts 207°
2026-05-07 19:36 -23.12295 -46.54324 10397 ft 328 kts 208°
2026-05-07 19:37 -23.14299 -46.55387 10110 ft 314 kts 208°
2026-05-07 19:37 -23.16212 -46.56402 9835 ft 301 kts 208°
2026-05-07 19:37 -23.18059 -46.57383 9551 ft 296 kts 208°
2026-05-07 19:37 -23.19908 -46.58367 9262 ft 296 kts 208°
2026-05-07 19:38 -23.21761 -46.59351 8991 ft 295 kts 208°
2026-05-07 19:38 -23.23603 -46.60333 8735 ft 293 kts 208°
2026-05-07 19:38 -23.25428 -46.61304 8460 ft 292 kts 208°
2026-05-07 19:38 -23.27247 -46.62269 8176 ft 290 kts 208°
2026-05-07 19:39 -23.29069 -46.63239 7906 ft 290 kts 208°
2026-05-07 19:39 -23.30881 -46.64205 7645 ft 289 kts 208°
2026-05-07 19:39 -23.32649 -46.65145 7354 ft 287 kts 207°
2026-05-07 19:39 -23.34414 -46.66083 7137 ft 283 kts 208°
2026-05-07 19:40 -23.36182 -46.67027 6880 ft 283 kts 208°
2026-05-07 19:40 -23.37942 -46.67966 6628 ft 281 kts 208°
2026-05-07 19:40 -23.39703 -46.68890 6362 ft 279 kts 204°
2026-05-07 19:40 -23.41566 -46.69256 6064 ft 271 kts 173°
2026-05-07 19:41 -23.43320 -46.68638 5829 ft 264 kts 147°
2026-05-07 19:41 -23.44692 -46.67367 5608 ft 256 kts 126°
2026-05-07 19:41 -23.45706 -46.65817 5314 ft 246 kts 121°
2026-05-07 19:41 -23.46641 -46.64306 5084 ft 233 kts 121°
2026-05-07 19:42 -23.47366 -46.62803 4837 ft 218 kts 98°
2026-05-07 19:42 -23.47274 -46.61262 4619 ft 199 kts 68°
2026-05-07 19:42 -23.46880 -46.59847 4424 ft 187 kts 68°
2026-05-07 19:42 -23.46526 -46.58528 4250 ft 182 kts 69°
2026-05-07 19:43 -23.46173 -46.57219 4038 ft 178 kts 69°
2026-05-07 19:43 -23.45834 -46.55964 3797 ft 172 kts 68°
2026-05-07 19:43 -23.45497 -46.54719 3594 ft 171 kts 69°
2026-05-07 19:43 -23.45163 -46.53496 3375 ft 165 kts 68°
2026-05-07 19:44 -23.44840 -46.52284 3142 ft 167 kts 70°
2026-05-07 19:44 -23.44519 -46.51064 2934 ft 169 kts 67°
2026-05-07 19:44 -23.44196 -46.49858 2744 ft 164 kts 69°
2026-05-07 19:44 -23.43876 -46.48662 2499 ft 162 kts 68°
2026-05-07 19:45 -23.43578 -46.47570 2479 ft 133 kts 73°
2026-05-07 19:45 -23.43380 -46.46850 2477 ft 59 kts 74°
2026-05-07 19:45 -23.43290 -46.46511 2475 ft 30 kts 72°
2026-05-07 19:45 -23.43200 -46.46342 2479 ft 25 kts 47°
2026-05-07 19:46 -23.43091 -46.46228 2479 ft 19 kts 43°
2026-05-07 19:46 -23.42987 -46.46142 2478 ft 15 kts 16°
2026-05-07 19:46 -23.42885 -46.46157 2478 ft 15 kts 344°
2026-05-07 19:46 -23.42786 -46.46188 2482 ft 15 kts 343°
2026-05-07 19:47 -23.42724 -46.46208 2478 ft 9 kts 343°
2026-05-07 19:47 -23.42654 -46.46232 2477 ft 11 kts 338°
2026-05-07 19:47 -23.42623 -46.46308 2478 ft 13 kts 258°
2026-05-07 19:47 -23.42647 -46.46402 2476 ft 13 kts 253°
2026-05-07 19:48 -23.42677 -46.46511 2476 ft 17 kts 253°
2026-05-07 19:48 -23.42710 -46.46634 2478 ft 20 kts 253°
2026-05-07 19:48 -23.42757 -46.46806 2475 ft 24 kts 253°
2026-05-07 19:48 -23.42800 -46.46965 2474 ft 20 kts 254°
2026-05-07 19:49 -23.42842 -46.47124 2477 ft 24 kts 254°
2026-05-07 19:49 -23.42890 -46.47301 2476 ft 20 kts 253°
2026-05-07 19:49 -23.42917 -46.47399 2477 ft 7 kts 253°
2026-05-07 19:49 -23.42926 -46.47448 2474 ft 8 kts 281°
2026-05-07 19:50 -23.42881 -46.47484 2478 ft 8 kts 335°
2026-05-07 19:50 -23.42830 -46.47502 2475 ft 4 kts 342°
2026-05-07 19:50 -23.42818 -46.47506 2476 ft 3 kts 342°
2026-05-07 19:50 -23.42792 -46.47502 2477 ft 3 kts 40°
2026-05-07 19:51 -23.42782 -46.47477 2479 ft 4 kts 74°
2026-05-07 19:51 -23.42774 -46.47446 2474 ft 4 kts 74°
2026-05-07 19:51 -23.42769 -46.47426 2473 ft 2 kts 73°
2026-05-07 19:51 -23.42767 -46.47419 2475 ft 1 kts 73°
2026-05-07 19:52 -23.42765 -46.47412 2475 ft 1 kts 74°
2026-05-07 19:52 -23.42764 -46.47411 2475 ft 0 kts 74°